Location: Albany
(35.0170°S, 117.8920°E)
Time: 18:27:00
(UTC+08:00)

A-11 Canister half - All Passes

Search period start: 24 January 2021 00:00
Search period end: 03 February 2021 00:00
Orbit: 1517 x 1683 km, 47.2° (Epoch: 23 January)

Date Brightness Start Highest point End Pass type
(mag) Time Alt. Az. Time Alt. Az. Time Alt. Az.
24 Jan - 06:11:41 10° N 06:19:52 31° NE 06:28:16 10° ESE daylight
24 Jan - 08:14:11 10° NW 08:24:07 85° SW 08:34:23 10° SE daylight
24 Jan - 10:20:45 10° W 10:30:18 45° SSW 10:40:01 10° ESE daylight
24 Jan - 12:27:46 10° WSW 12:37:29 46° SSE 12:47:09 10° E daylight
24 Jan - 14:33:20 10° SW 14:43:39 87° SE 14:53:42 10° NE daylight
24 Jan - 16:39:31 10° WSW 16:47:54 30° NW 16:56:06 10° N daylight
25 Jan - 05:49:07 10° N 05:57:01 29° NE 06:05:07 10° ESE daylight
25 Jan - 07:51:16 10° NW 08:01:10 89° SSW 08:11:25 10° SE daylight
25 Jan - 09:57:40 10° W 10:07:15 46° SSW 10:16:59 10° ESE daylight
25 Jan - 12:04:46 10° WSW 12:14:26 45° SSE 12:24:04 10° E daylight
25 Jan - 14:10:22 10° SW 14:20:41 83° SE 14:30:47 10° ENE daylight
25 Jan - 16:16:24 10° WSW 16:25:02 33° NW 16:33:30 10° N daylight
26 Jan - 05:26:35 10° N 05:34:11 27° NE 05:41:57 10° ESE daylight
26 Jan - 07:28:22 10° NW 07:38:13 87° NE 07:48:26 10° SE daylight
26 Jan - 09:34:37 10° W 09:44:12 47° SSW 09:53:59 10° ESE daylight
26 Jan - 11:41:45 10° WSW 11:51:22 44° S 12:01:00 10° E daylight
26 Jan - 13:47:24 10° SW 13:57:43 80° SSE 14:07:49 10° ENE daylight
26 Jan - 15:53:17 10° WSW 16:02:10 36° NW 16:10:52 10° N daylight
27 Jan - 05:04:05 10° N 05:11:20 24° NE 05:18:46 10° ESE daylight
27 Jan - 07:05:28 10° NW 07:15:17 83° NE 07:25:28 10° SE daylight
27 Jan - 09:11:34 10° W 09:21:09 48° SSW 09:30:58 10° ESE daylight
27 Jan - 11:18:43 10° WSW 11:28:19 43° S 11:37:54 10° E daylight
27 Jan - 13:24:27 10° SW 13:34:44 76° SSE 13:44:51 10° ENE daylight
27 Jan - 15:30:13 10° WSW 15:39:18 38° NW 15:48:12 10° NNE daylight
28 Jan - 04:41:37 10° N 04:48:30 22° NE 04:55:33 10° ESE visible
28 Jan - 06:42:36 10° NW 06:52:21 79° NE 07:02:30 10° ESE daylight
28 Jan - 08:48:30 10° W 08:58:06 49° SSW 09:07:57 10° SE daylight
28 Jan - 10:55:43 10° WSW 11:05:14 43° S 11:14:49 10° ESE daylight
28 Jan - 13:01:29 10° SW 13:11:45 73° SSE 13:21:53 10° ENE daylight
28 Jan - 15:07:10 10° WSW 15:16:25 41° NW 15:25:31 10° NNE daylight
29 Jan - 04:19:13 10° NNE 04:25:41 20° ENE 04:32:16 10° E visible
29 Jan - 06:19:44 10° NW 06:29:25 75° NE 06:39:31 10° ESE daylight
29 Jan - 08:25:28 10° W 08:35:05 51° SSW 08:44:57 10° SE daylight
29 Jan - 10:32:40 10° WSW 10:42:10 42° S 10:51:44 10° ESE daylight
29 Jan - 12:38:32 10° SW 12:48:46 70° SSE 12:58:53 10° ENE daylight
29 Jan - 14:44:07 10° WSW 14:53:32 44° NW 15:02:48 10° NNE daylight
30 Jan - 03:56:53 10° NNE 04:02:51 18° ENE 04:08:56 10° E visible
30 Jan - 05:56:53 10° NW 06:06:31 71° NE 06:16:31 10° ESE daylight
30 Jan - 08:02:26 10° W 08:12:03 52° SSW 08:21:57 10° SE daylight
30 Jan - 10:09:39 10° WSW 10:19:06 42° S 10:28:39 10° ESE daylight
30 Jan - 12:15:34 10° SW 12:25:46 67° SSE 12:35:53 10° ENE daylight
30 Jan - 14:21:05 10° WSW 14:30:39 47° NW 14:40:04 10° NNE daylight
31 Jan - 03:34:38 10° NNE 03:40:02 17° ENE 03:45:32 10° E visible
31 Jan - 05:34:04 10° NW 05:43:36 67° NE 05:53:32 10° ESE daylight
31 Jan - 07:39:25 10° W 07:49:01 54° SSW 07:58:57 10° SE daylight
31 Jan - 09:46:38 10° WSW 09:56:02 41° S 10:05:34 10° ESE daylight
31 Jan - 11:52:36 10° SW 12:02:46 65° SSE 12:12:52 10° ENE daylight
31 Jan - 13:58:03 10° WSW 14:07:45 50° NW 14:17:18 10° NNE daylight
01 Feb - 03:12:29 10° NNE 03:17:13 15° ENE 03:22:01 10° E visible
01 Feb - 05:11:16 10° NW 05:20:42 63° NE 05:30:33 10° ESE daylight
01 Feb - 07:16:24 10° W 07:26:00 56° SSW 07:35:58 10° SE daylight
01 Feb - 09:23:35 10° WSW 09:32:57 41° S 09:42:28 10° ESE daylight
01 Feb - 11:29:39 10° SW 11:39:46 62° SSE 11:49:50 10° ENE daylight
01 Feb - 13:35:02 10° WSW 13:44:51 54° NW 13:54:32 10° NNE daylight
01 Feb - 15:45:38 10° WNW 15:48:17 11° WNW 15:50:54 10° NW daylight
02 Feb - 02:50:31 10° NE 02:54:25 13° ENE 02:58:21 10° E visible
02 Feb - 04:48:28 10° NNW 04:57:49 59° NE 05:07:33 10° ESE visible
02 Feb - 06:53:23 10° WNW 07:03:00 58° SSW 07:12:58 10° SE daylight
02 Feb - 09:00:33 10° WSW 09:09:53 41° S 09:19:24 10° ESE daylight
02 Feb - 11:06:42 10° SW 11:16:44 60° SSE 11:26:48 10° ENE daylight
02 Feb - 13:12:02 10° WSW 13:21:57 57° NW 13:31:44 10° NNE daylight
02 Feb - 15:21:32 10° W 15:25:27 13° WNW 15:29:20 10° NW daylight
